EW4271 Weather Reports


time (UTC)temp
F
wind
direction
speed
knots
gust
knots
rain 1hr
in
rain 24hr
in
rain mn
in
humidity
%
barometer
mb
20260905214104 73 53 1.7 5.2 0.00 0.11 0.11 57 1025.0
20260905213618 72 40 3.5 6.1 0.00 0.11 0.11 59 1025.0
20260905213112 71 53 2.6 6.1 0.00 0.11 0.11 65 1025.0
20260905212606 71 125 0.0 0.0 0.00 0.11 0.11 77 1025.0
20260905212119 71 241 0.0 0.0 0.00 0.11 0.11 83 1025.0
20260905211611 70 241 0.0 0.0 0.02 0.11 0.11 81 1025.0
20260905211105 68 241 0.0 0.0 0.05 0.11 0.11 86 1025.1
20260905210624 67 241 0.0 0.0 0.11 0.11 0.11 87 1025.3
20260905210116 67 241 0.0 0.0 0.11 0.11 0.11 86 1025.3
20260905205610 67 241 0.0 0.0 0.11 0.11 0.11 85 1025.3
20260905205104 67 241 0.0 0.0 0.11 0.11 0.11 86 1025.4
20260905204618 67 241 0.0 0.0 0.11 0.11 0.11 85 1025.5
20260905204111 67 241 0.0 0.9 0.11 0.11 0.11 84 1025.5
20260905194114 80 153 0.9 2.6 0.00 0.00 0.00 39 1025.7
20260905193606 80 119 1.7 2.6 0.00 0.00 0.00 39 1025.7
20260905193141 79 61 0.0 0.0 0.00 0.00 0.00 40 1025.8
20260905192614 80 61 0.0 0.9 0.00 0.00 0.00 39 1025.9
20260905192108 80 178 0.0 0.9 0.00 0.00 0.00 39 1026.0
20260905191603 81 178 0.0 2.6 0.00 0.00 0.00 40 1026.1
20260905191117 81 178 0.9 2.6 0.00 0.00 0.00 37 1026.2
20260905190635 82 14 0.9 2.6 0.00 0.00 0.00 37 1026.2
20260905190128 82 57 0.9 4.3 0.00 0.00 0.00 38 1026.2
20260905185621 81 270 1.7 2.6 0.00 0.00 0.00 38 1026.3
20260905185135 80 158 1.7 2.6 0.00 0.00 0.00 40 1026.4
20260905184608 80 34 0.0 0.0 0.00 0.00 0.00 39 1026.5
20260905184106 80 33 0.0 2.6 0.00 0.00 0.00 38 1026.6
20260905183620 80 61 0.9 3.5 0.00 0.00 0.00 38 1026.6
20260905183114 80 103 1.7 5.2 0.00 0.00 0.00 39 1026.7
20260905182612 79 186 2.6 5.2 0.00 0.00 0.00 40 1026.7
20260905182107 79 187 2.6 8.7 0.00 0.00 0.00 41 1026.8
20260905181621 78 147 3.5 8.7 0.00 0.00 0.00 40 1026.9
20260905181114 78 56 0.9 4.3 0.00 0.00 0.00 40 1026.9
20260905180608 79 41 1.7 7.8 0.00 0.00 0.00 38 1027.0
20260905180143 79 126 2.6 7.8 0.00 0.00 0.00 40 1027.1
20260905175616 79 78 0.9 5.2 0.00 0.00 0.00 41 1027.2
20260905175114 79 166 2.6 5.2 0.00 0.00 0.00 40 1027.2
20260905174608 79 71 2.6 7.0 0.00 0.00 0.00 41 1027.1
20260905174122 78 117 1.7 5.2 0.00 0.00 0.00 42 1027.1
20260905173636 78 45 2.6 4.3 0.00 0.00 0.00 40 1027.2
20260905173108 78 147 0.9 3.5 0.00 0.00 0.00 40 1027.3
20260905172643 78 86 1.7 4.3 0.00 0.00 0.00 41 1027.4
20260905172116 78 146 1.7 7.0 0.00 0.00 0.00 42 1027.2
20260905171610 78 159 3.5 7.0 0.00 0.00 0.00 40 1027.2
20260905171104 78 143 2.6 7.0 0.00 0.00 0.00 41 1027.2
20260905170618 77 156 1.7 6.1 0.00 0.00 0.00 41 1027.4
20260905170132 77 130 1.7 6.1 0.00 0.00 0.00 42 1027.3
20260905165604 77 276 0.9 3.5 0.00 0.00 0.00 42 1027.4
20260905165115 76 217 0.0 3.5 0.00 0.00 0.00 41 1027.4
20260905164603 76 217 0.9 3.5 0.00 0.00 0.00 43 1027.4
20260905163630 75 130 1.7 3.5 0.00 0.00 0.00 44 1027.4
20260905163104 75 186 0.9 3.5 0.00 0.00 0.00 47 1027.4
20260905162635 74 300 0.0 2.6 0.00 0.00 0.00 47 1027.4
20260905162125 74 312 0.9 2.6 0.00 0.00 0.00 47 1027.4
20260905161619 74 228 0.9 2.6 0.00 0.00 0.00 44 1027.4
20260905161117 73 144 0.9 6.1 0.00 0.00 0.00 48 1027.4
20260905160609 73 140 3.5 6.1 0.00 0.00 0.00 49 1027.4
20260905155618 72 38 0.9 3.5 0.00 0.00 0.00 53 1027.4
20260905155112 72 155 1.7 3.5 0.00 0.00 0.00 55 1027.4
20260905154613 71 102 0.0 2.6 0.00 0.00 0.00 55 1027.4
20260905154128 71 102 0.9 3.5 0.00 0.00 0.00 56 1027.5
20260905153618 71 49 1.7 3.5 0.00 0.00 0.00 55 1027.5
20260905153112 72 146 0.0 0.0 0.00 0.00 0.00 58 1027.6
20260905152605 71 146 0.0 0.0 0.00 0.00 0.00 56 1027.5
20260905152119 71 146 0.0 0.0 0.00 0.00 0.00 58 1027.5
20260905151613 71 146 0.0 0.0 0.00 0.00 0.00 58 1027.5
20260905151118 70 146 0.0 0.0 0.00 0.00 0.00 59 1027.5
20260905150606 69 146 0.0 0.0 0.00 0.00 0.00 62 1027.4
20260905150119 68 146 0.0 0.0 0.00 0.00 0.00 64 1027.4
20260905145613 67 146 0.0 0.0 0.00 0.00 0.00 66 1027.4
20260905145106 66 146 0.0 0.0 0.00 0.00 0.00 67 1027.4
20260905144620 65 146 0.0 0.0 0.00 0.00 0.00 72 1027.4
20260905144113 64 146 0.0 0.0 0.00 0.00 0.00 77 1027.4
20260905143611 63 146 0.0 0.0 0.00 0.00 0.00 83 1027.4
20260905143104 61 146 0.0 0.0 0.00 0.00 0.00 85 1027.4
20260905142617 60 146 0.0 0.0 0.00 0.00 0.00 86 1027.4
20260905142111 58 34 0.0 0.0 0.00 0.00 0.00 90 1027.4
20260905141605 57 34 0.0 0.0 0.00 0.00 0.00 90 1027.3
20260905141118 57 34 0.0 0.0 0.00 0.00 0.00 90 1027.4
20260905140613 56 34 0.0 0.0 0.00 0.00 0.00 90 1027.3
20260905140119 56 34 0.0 0.0 0.00 0.00 0.00 90 1027.4
20260905135612 56 34 0.0 0.0 0.00 0.00 0.00 90 1027.3
20260905135106 55 34 0.0 0.0 0.00 0.00 0.00 90 1027.2
20260905134640 55 34 0.0 0.0 0.00 0.00 0.00 90 1027.2
20260905134113 54 34 0.0 0.0 0.00 0.00 0.00 90 1027.1
20260905133606 54 34 0.0 0.0 0.00 0.00 0.00 90 1027.0
20260905133141 54 34 0.0 0.0 0.00 0.01 0.00 90 1027.1
20260905132618 54 34 0.0 0.0 0.00 0.01 0.00 89 1027.0
20260905132112 54 34 0.0 0.0 0.00 0.01 0.00 89 1026.9
20260905131606 54 34 0.0 0.0 0.00 0.01 0.00 89 1026.7
20260905131141 54 34 0.0 0.0 0.00 0.01 0.00 89 1026.7
20260905130615 54 34 0.0 0.0 0.00 0.01 0.00 89 1026.6
20260905130128 54 34 0.0 0.0 0.00 0.01 0.00 88 1026.6
20260905125622 54 34 0.0 0.0 0.00 0.01 0.00 88 1026.6
20260905125116 54 34 0.0 0.0 0.00 0.01 0.00 89 1026.5
20260905124609 54 34 0.0 0.0 0.00 0.01 0.00 89 1026.5
20260905124107 54 34 0.0 0.0 0.00 0.01 0.00 89 1026.4
20260905123621 54 34 0.0 0.0 0.00 0.01 0.00 88 1026.4
20260905123115 54 34 0.0 0.0 0.00 0.01 0.00 87 1026.4
20260905122609 54 34 0.0 0.0 0.00 0.01 0.00 88 1026.4
20260905122103 54 34 0.0 0.0 0.00 0.01 0.00 88 1026.4
20260905121618 54 34 0.0 0.0 0.00 0.01 0.00 87 1026.4
20260905121111 54 34 0.0 0.0 0.00 0.01 0.00 88 1026.4
20260905120609 54 34 0.0 0.0 0.00 0.01 0.00 87 1026.4
20260905120103 54 34 0.0 0.0 0.00 0.01 0.00 87 1026.3
20260905115638 55 34 0.0 0.0 0.00 0.01 0.00 87 1026.3
20260905115110 55 34 0.0 0.0 0.00 0.01 0.00 87 1026.4
20260905114644 55 34 0.0 0.0 0.00 0.01 0.00 87 1026.2
20260905114117 55 34 0.0 0.0 0.00 0.01 0.00 87 1026.2
20260905113611 55 34 0.0 0.0 0.00 0.01 0.00 87 1026.2
20260905113105 55 34 0.0 0.0 0.00 0.01 0.00 87 1026.2
20260905112619 55 34 0.0 0.0 0.00 0.01 0.00 87 1026.2
20260905112112 55 34 0.0 0.0 0.00 0.01 0.00 87 1026.2
20260905111610 55 34 0.0 0.0 0.00 0.01 0.00 87 1026.2
20260905111105 56 34 0.0 0.0 0.00 0.01 0.00 87 1026.2
20260905110619 56 34 0.0 0.0 0.00 0.01 0.00 86 1026.2
20260905110112 56 34 0.0 0.0 0.00 0.01 0.00 86 1026.2
20260905105606 56 34 0.0 0.0 0.00 0.01 0.00 87 1026.2
20260905105120 56 34 0.0 0.0 0.00 0.01 0.00 86 1026.1
20260905104614 56 34 0.0 0.0 0.00 0.01 0.00 86 1026.1
20260905104112 56 34 0.0 0.0 0.00 0.01 0.00 86 1026.1
20260905103605 56 34 0.0 0.0 0.00 0.01 0.00 86 1026.1
20260905103119 56 34 0.0 0.0 0.00 0.01 0.00 86 1026.0
20260905102612 56 34 0.0 0.0 0.00 0.01 0.00 86 1026.1
20260905102107 57 34 0.0 0.0 0.00 0.01 0.00 86 1026.0
20260905101620 57 34 0.0 0.0 0.00 0.01 0.00 86 1026.0
20260905101113 56 34 0.0 0.0 0.00 0.01 0.00 86 1026.0
20260905100606 56 34 0.0 0.0 0.00 0.01 0.00 86 1026.0
20260905100121 56 34 0.0 0.0 0.00 0.01 0.00 85 1026.0
20260905095619 57 34 0.0 0.0 0.00 0.01 0.00 86 1026.0
20260905095112 57 34 0.0 0.0 0.00 0.01 0.00 86 1026.0
20260905094626 57 34 0.0 0.0 0.00 0.01 0.00 86 1025.9
20260905094120 57 34 0.0 0.0 0.00 0.01 0.00 86 1025.9
20260905093613 57 34 0.0 0.0 0.00 0.01 0.00 85 1026.0
20260905093128 57 34 0.0 0.0 0.00 0.01 0.00 85 1026.0
20260905092619 57 34 0.0 0.0 0.00 0.01 0.00 85 1026.0
20260905092113 57 34 0.0 0.0 0.00 0.01 0.00 85 1026.0
20260905091608 57 34 0.0 0.0 0.00 0.01 0.00 85 1026.0
20260905091105 57 34 0.0 0.0 0.00 0.01 0.00 85 1026.0
20260905090619 57 34 0.0 0.0 0.00 0.01 0.00 85 1026.0
20260905090112 57 34 0.0 0.0 0.00 0.01 0.00 84 1026.0
20260905085626 57 34 0.0 0.0 0.00 0.01 0.00 84 1026.0
20260905085119 57 34 0.0 0.0 0.00 0.01 0.00 84 1025.9
20260905084633 57 34 0.0 0.0 0.00 0.01 0.00 84 1025.9
20260905084104 57 34 0.0 0.0 0.00 0.01 0.00 84 1025.8
20260905083618 57 34 0.0 0.0 0.00 0.01 0.00 84 1025.9
20260905083111 57 34 0.0 0.0 0.00 0.01 0.00 84 1025.9
20260905082605 57 34 0.0 0.0 0.00 0.01 0.00 84 1026.0
20260905082103 58 34 0.0 0.0 0.00 0.01 0.00 83 1026.0
20260905081617 58 34 0.0 0.0 0.00 0.01 0.00 84 1026.1
20260905081110 57 34 0.0 0.0 0.00 0.01 0.00 84 1026.1
20260905080603 58 34 0.0 0.0 0.00 0.01 0.00 84 1026.0
20260905080117 58 34 0.0 0.0 0.00 0.01 0.00 84 1026.0
20260905075610 58 34 0.0 0.0 0.00 0.01 0.00 84 1025.9
20260905075124 58 34 0.0 0.0 0.00 0.01 0.00 84 1026.0
20260905074637 58 34 0.0 0.0 0.00 0.01 0.00 84 1026.0
20260905074107 57 34 0.0 0.0 0.00 0.01 0.00 84 1026.0
20260905073621 57 34 0.0 0.0 0.00 0.01 0.00 84 1026.1
20260905073119 57 34 0.0 0.0 0.00 0.01 0.00 84 1026.0
20260905072612 57 34 0.0 0.0 0.00 0.01 0.00 84 1026.0
20260905072106 58 34 0.0 0.0 0.00 0.01 0.00 84 1026.0
20260905071619 58 34 0.0 0.0 0.00 0.01 0.00 84 1026.0
20260905071113 58 34 0.0 0.0 0.00 0.01 0.00 83 1026.0
20260905070607 58 34 0.0 0.0 0.00 0.01 0.00 84 1026.0
20260905070140 58 34 0.0 0.0 0.00 0.01 0.00 84 1026.0
20260905065612 58 34 0.0 0.0 0.00 0.01 0.00 84 1026.0
20260905065110 58 34 0.0 0.0 0.00 0.01 0.00 83 1026.0
20260905064624 58 34 0.0 0.0 0.00 0.01 0.00 83 1026.0
20260905064116 58 34 0.0 0.0 0.00 0.01 0.00 83 1026.0
20260905063610 58 34 0.0 0.0 0.00 0.01 0.00 83 1026.0
20260905063104 58 34 0.0 0.0 0.00 0.01 0.01 84 1026.1
20260905062618 58 34 0.0 0.0 0.00 0.01 0.01 83 1026.0
20260905062132 58 34 0.0 0.0 0.00 0.01 0.01 83 1026.0
20260905061604 58 34 0.0 0.0 0.00 0.01 0.01 83 1026.0
20260905061118 59 34 0.0 0.0 0.00 0.01 0.01 83 1025.9
20260905060632 59 34 0.0 0.0 0.00 0.01 0.01 83 1026.0
20260905060109 59 34 0.0 0.0 0.00 0.01 0.01 82 1026.0
20260905055603 59 34 0.0 0.0 0.00 0.01 0.01 82 1025.9
20260905055116 59 34 0.0 0.0 0.00 0.01 0.01 82 1026.0
20260905054609 59 34 0.0 0.0 0.00 0.01 0.01 81 1025.9
20260905054123 60 34 0.0 0.0 0.00 0.01 0.01 82 1025.9
20260905053616 60 34 0.0 0.0 0.00 0.01 0.01 81 1025.9
20260905053108 60 34 0.0 0.0 0.00 0.01 0.01 81 1026.0
20260905052621 60 34 0.0 0.0 0.00 0.01 0.01 81 1026.0
20260905052114 61 34 0.0 0.0 0.00 0.01 0.01 81 1026.1
20260905051144 61 34 0.0 0.0 0.00 0.01 0.01 80 1026.2
20260905050121 61 34 0.0 0.0 0.00 0.01 0.01 79 1026.2
20260905045615 61 34 0.0 0.0 0.00 0.01 0.01 78 1026.2
20260905045107 61 34 0.0 0.0 0.00 0.01 0.01 79 1026.2
20260905044623 62 34 0.0 0.0 0.00 0.01 0.01 79 1026.2
20260905044114 62 34 0.0 0.0 0.00 0.01 0.01 78 1026.4
20260905043607 63 34 0.0 0.0 0.00 0.01 0.01 77 1026.6
20260905043104 63 34 0.0 0.0 0.00 0.01 0.01 77 1026.5
20260905042618 63 34 0.0 0.0 0.00 0.01 0.01 76 1026.7
20260905042112 63 34 0.0 0.0 0.00 0.01 0.01 76 1026.7
20260905041627 64 34 0.0 0.0 0.00 0.01 0.01 75 1026.7
20260905041120 64 34 0.0 0.0 0.00 0.01 0.01 73 1026.7
20260905040614 64 34 0.0 0.0 0.00 0.01 0.01 74 1026.7
20260905040107 65 34 0.0 0.0 0.00 0.01 0.01 73 1026.7
20260905035622 65 34 0.0 0.0 0.00 0.01 0.01 72 1026.8
20260905035135 65 34 0.0 0.0 0.00 0.01 0.01 71 1026.8
20260905034630 66 34 0.0 0.0 0.00 0.01 0.01 71 1026.7
20260905034106 66 34 0.0 0.0 0.00 0.01 0.01 68 1026.7
20260905033620 67 34 0.0 0.0 0.00 0.01 0.01 68 1026.8
20260905033114 67 34 0.0 0.0 0.00 0.01 0.01 69 1026.8
20260905032608 68 34 0.0 0.0 0.00 0.01 0.01 68 1026.7
20260905032142 68 34 0.0 0.0 0.00 0.01 0.01 65 1026.7
20260905031615 68 34 0.0 0.0 0.00 0.01 0.01 66 1026.7
20260905031109 68 34 0.0 0.0 0.00 0.01 0.01 64 1026.7
20260905030643 68 34 0.0 0.9 0.00 0.01 0.01 63 1026.7
20260905030116 68 34 0.0 0.9 0.00 0.01 0.01 63 1026.6
20260905025614 68 34 0.0 0.0 0.00 0.01 0.01 64 1026.4
20260905025108 68 34 0.0 0.0 0.00 0.01 0.01 63 1026.5
20260905024622 69 34 0.0 0.0 0.00 0.01 0.01 62 1026.4
20260905024116 69 34 0.0 0.0 0.00 0.01 0.01 62 1026.4
20260905023610 69 34 0.0 1.7 0.00 0.01 0.01 62 1026.3
20260905023103 69 34 0.0 1.7 0.00 0.01 0.01 61 1026.1
20260905022618 69 34 0.9 1.7 0.00 0.01 0.01 61 1026.1
20260905022110 69 34 0.0 4.3 0.00 0.01 0.01 60 1025.9
20260905021609 69 34 2.6 4.3 0.00 0.01 0.01 60 1025.7
20260905021104 69 40 0.9 2.6 0.00 0.01 0.01 60 1025.5
20260905020637 69 131 0.0 4.3 0.00 0.01 0.01 60 1025.4
20260905020110 68 101 0.0 6.1 0.00 0.01 0.01 61 1025.4
20260905015624 68 126 1.7 3.5 0.00 0.01 0.01 63 1025.3
20260905015118 68 90 0.9 4.3 0.00 0.01 0.01 66 1025.3
20260905014611 68 232 0.0 0.0 0.00 0.01 0.01 65 1025.1
20260905014104 68 232 0.0 0.0 0.00 0.01 0.01 66 1025.0
20260905013618 68 232 0.0 0.0 0.00 0.01 0.01 64 1024.9
20260905013111 69 232 0.0 0.0 0.00 0.03 0.01 62 1024.8
20260905012609 69 232 0.0 0.0 0.00 0.03 0.01 63 1024.8
20260905012122 69 232 0.0 0.0 0.00 0.03 0.01 60 1024.8
20260905011635 69 232 0.0 0.0 0.00 0.03 0.01 60 1024.8
20260905011108 70 232 0.0 0.0 0.00 0.03 0.01 60 1024.8
20260905010602 70 232 0.0 1.7 0.00 0.03 0.01 58 1024.8
20260905010117 69 232 0.0 1.7 0.00 0.03 0.01 58 1024.9
20260905005610 69 232 0.0 1.7 0.00 0.03 0.01 59 1024.8
20260905005103 69 232 0.9 2.6 0.00 0.03 0.01 59 1024.7
20260905004616 70 234 1.7 3.5 0.00 0.03 0.01 58 1024.8
20260905004115 70 234 1.7 3.5 0.00 0.03 0.01 58 1024.7
20260905003608 70 249 1.7 3.5 0.00 0.03 0.01 57 1024.6
20260905003121 71 215 0.0 3.5 0.00 0.21 0.01 55 1024.6
20260905002616 71 218 0.9 4.3 0.00 0.21 0.01 54 1024.6
20260905002110 72 51 1.7 3.5 0.00 0.21 0.01 55 1024.7
20260905001603 73 295 1.7 5.2 0.00 0.21 0.01 55 1024.6
20260905001118 74 36 2.6 5.2 0.00 0.21 0.01 47 1024.6
20260905000615 74 251 0.9 4.3 0.00 0.21 0.01 45 1024.7
20260905000109 75 32 1.7 5.2 0.00 0.21 0.01 45 1024.5
20260904235603 76 229 2.6 5.2 0.00 0.21 0.01 44 1024.5
20260904235117 77 321 1.7 4.3 0.00 0.21 0.01 42 1024.4
20260904234609 77 18 0.9 4.3 0.00 0.21 0.01 42 1024.1
20260904234102 77 117 0.0 0.0 0.00 0.21 0.01 41 1024.1
20260904233635 78 117 0.0 1.7 0.00 0.21 0.01 41 1023.9
20260904233109 78 117 0.9 1.7 0.00 0.21 0.01 39 1023.9
20260904232603 78 117 0.9 2.6 0.00 0.21 0.01 40 1023.9
20260904232120 78 155 0.9 2.6 0.00 0.21 0.01 40 1023.9
20260904231615 79 169 0.0 2.6 0.00 0.21 0.01 39 1023.9
20260904231129 79 169 0.9 3.5 0.00 0.21 0.01 39 1023.9
20260904230621 79 151 1.7 3.5 0.00 0.21 0.01 39 1023.9
20260904230115 79 142 0.0 1.7 0.00 0.21 0.01 39 1023.8
20260904225610 80 160 0.9 1.7 0.00 0.21 0.01 38 1023.8
20260904225103 80 160 0.9 2.6 0.00 0.21 0.01 39 1023.8
20260904224616 80 160 0.9 2.6 0.00 0.21 0.01 39 1023.8
20260904224114 79 53 0.9 3.5 0.00 0.21 0.01 38 1023.7
20260904223628 80 55 2.6 3.5 0.00 0.21 0.01 37 1023.8
20260904223120 80 192 1.7 2.6 0.00 0.21 0.01 38 1023.8
20260904222613 80 320 0.0 2.6 0.00 0.21 0.01 39 1023.8
20260904222108 80 320 0.9 2.6 0.00 0.21 0.01 40 1023.8
20260904221621 80 333 0.9 2.6 0.00 0.21 0.01 38 1023.9
20260904221115 79 355 0.9 2.6 0.00 0.21 0.01 40 1024.0
20260904220606 78 355 1.7 2.6 0.00 0.21 0.01 41 1024.1
20260904220120 78 55 1.7 5.2 0.00 0.21 0.01 40 1024.1
20260904215613 78 46 2.6 5.2 0.00 0.21 0.01 41 1024.0
20260904215108 78 115 0.9 2.6 0.00 0.21 0.01 46 1024.1
20260904214642 77 172 0.9 2.6 0.00 0.21 0.01 44 1024.1